Air Resources Laboratory banner image
Air Resources Laboratory web site National Oceanic and Atmospheric Administration (NOAA)

ma zone


NYZ176-178-MAZ016-IL014-TNZ027-NJZ106-GAZ044-MD014-211300-

...Gateway Observations for Charleston International...

CITY           SKY/WX    TMP DP  RH WIND       PRES   REMARKS
Chas Airport   FAIR      78  73  84 SW10      30.08R
6HR MIN TEMP:  76; 6HR MAX TEMP:  80;

Seattle        CLOUDY    68  60  75 NE8       30.07R HAZE
6HR MIN TEMP:  68; 6HR MAX TEMP:  74;

Charlotte      CLOUDY    75  73  93 SW7       30.04S
6HR MIN TEMP:  74; 6HR MAX TEMP:  77;

Dallas DFW     PTCLDY    73  65  75 S6        30.07R
6HR MIN TEMP:  73; 6HR MAX TEMP:  78;

Dallas Love    PTCLDY    77  67  71 S5        30.08R
6HR MIN TEMP:  75; 6HR MAX TEMP:  81;

Philladelphia  PTSUNNY   71  67  87 E8        30.09R
6HR MIN TEMP:  69; 6HR MAX TEMP:  71;

Wash National  CLOUDY    76  70  82 SE9       30.03R
6HR MIN TEMP:  75; 6HR MAX TEMP:  76;

Baltimore      CLOUDY    74  70  87 E9        30.03S
6HR MIN TEMP:  73; 6HR MAX TEMP:  74;

Miami          FAIR      83  75  77 E8        30.10R HX  90
6HR MIN TEMP:  78; 6HR MAX TEMP:  83;

Detroit        RAIN      72  68  87 S7        29.78S FOG
6HR MIN TEMP:  72; 6HR MAX TEMP:  74; 6HR PCP:  0.03;

Newark         FAIR      71  62  73 E9        30.10S
6HR MIN TEMP:  69; 6HR MAX TEMP:  71;

Laguardia      FAIR      70  62  76 E9        30.11S
6HR MIN TEMP:  68; 6HR MAX TEMP:  71;

J F K          FAIR      67  65  93 E8        30.12S
6HR MIN TEMP:  64; 6HR MAX TEMP:  67;

Boston Logan   CLOUDY    67  63  87 N9        30.15S
6HR MIN TEMP:  65; 6HR MAX TEMP:  67;

Ft. Lauderdale FAIR      83  78  85 E6        30.10R HX  93
6HR MIN TEMP:  81; 6HR MAX TEMP:  83;

Chicago O'Hare CLOUDY    70  68  93 NW3       29.77R FOG
6HR MIN TEMP:  70; 6HR MAX TEMP:  70;

Chicago Midway CLOUDY    70  69  97 CALM      29.76R
6HR MIN TEMP:  68; 6HR MAX TEMP:  72; 6HR PCP: TRACE;

Houston Bush   CLOUDY    81  79  94 SW3       30.06R HX  90
6HR MIN TEMP:  81; 6HR MAX TEMP:  83;

Houston Hobby  FAIR      80  79  96 SW5       30.05R
6HR MIN TEMP:  79; 6HR MAX TEMP:  81;

Nashville      CLOUDY    74  68  81 SW7       29.95R
6HR MIN TEMP:  73; 6HR MAX TEMP:  77;

Atlanta        CLOUDY    74  70  87 SW10      30.07R
6HR MIN TEMP:  73; 6HR MAX TEMP:  74;



NYZ176-178-MAZ106-OHZ011-021-055-MIZ076-KYZ091-ILZ014-INZ047-
MNZ060-ONZ431-211300-

...Gateway Observations for Savannah International...

CITY           SKY/WX    TMP DP  RH WIND       PRES   REMARKS
Savannah Arpt  PTSUNNY   75  73  93 SW6       30.10R
6HR MIN TEMP:  73; 6HR MAX TEMP:  76;

Atlanta        CLOUDY    74  70  87 SW10      30.07R
6HR MIN TEMP:  73; 6HR MAX TEMP:  74;

Charlotte      CLOUDY    75  73  93 SW7       30.04S
6HR MIN TEMP:  74; 6HR MAX TEMP:  77;

Dallas DFW     PTCLDY    73  65  75 S6        30.07R
6HR MIN TEMP:  73; 6HR MAX TEMP:  78;

Houston Bush   CLOUDY    81  79  94 SW3       30.06R HX  90
6HR MIN TEMP:  81; 6HR MAX TEMP:  83;

Wash National  CLOUDY    76  70  82 SE9       30.03R
6HR MIN TEMP:  75; 6HR MAX TEMP:  76;

Wash Dulles    CLOUDY    74  71  91 SE9       30.02S
6HR MIN TEMP:  73; 6HR MAX TEMP:  74;

Baltimore      CLOUDY    74  70  87 E9        30.03S
6HR MIN TEMP:  73; 6HR MAX TEMP:  74;

Philadelphia   PTSUNNY   71  67  87 E8        30.09R
6HR MIN TEMP:  69; 6HR MAX TEMP:  71;

Newark         FAIR      71  62  73 E9        30.10S
6HR MIN TEMP:  69; 6HR MAX TEMP:  71;

Laguardia      FAIR      70  62  76 E9        30.11S
6HR MIN TEMP:  68; 6HR MAX TEMP:  71;

J F K          FAIR      67  65  93 E8        30.12S
6HR MIN TEMP:  64; 6HR MAX TEMP:  67;

Boston         CLOUDY    67  63  87 N9        30.15S
6HR MIN TEMP:  65; 6HR MAX TEMP:  67;

Pittsburg      LGT RAIN  69  68  96 S5        29.93R FOG
6HR MIN TEMP:  69; 6HR MAX TEMP:  71; 6HR PCP:  0.09;

Akron          CLOUDY    72  69  90 S12       29.87S
6HR MIN TEMP:  71; 6HR MAX TEMP:  73; 6HR PCP:  0.36;

Cleveland      CLOUDY    72  69  90 SE8       29.85S
6HR MIN TEMP:  71; 6HR MAX TEMP:  75; 6HR PCP:  0.68;

Cincinnati     PTSUNNY   72  69  90 SW10      29.86R
6HR MIN TEMP:  71; 6HR MAX TEMP:  75; 6HR PCP: TRACE;

Columbus       FAIR      72  72  99 S14       29.83S
Detroit        RAIN      72  68  87 S7        29.78S FOG
6HR MIN TEMP:  72; 6HR MAX TEMP:  74; 6HR PCP:  0.03;

Chicago O'Hare CLOUDY    70  68  93 NW3       29.77R FOG
6HR MIN TEMP:  70; 6HR MAX TEMP:  70;

Minneapolis    CLOUDY    65  60  84 N12G20    30.05R
6HR MIN TEMP:  64; 6HR MAX TEMP:  67;

Indianapolis   CLOUDY    70  68  93 SW13      29.81R
6HR MIN TEMP:  69; 6HR MAX TEMP:  72; 6HR PCP:  0.12;

Toronto Canada NOT AVBL